Location: Sternwarte Stuttgart
(48.7670°N, 9.1830°E)
Time: 01:34:57
(UTC+01:00)

Meteor 2-1 Rocket - Pass Details

Date: 24 January 2019
Orbit: 828 x 908 km, 81.3° (Epoch: 21 February)

Event Time Altitude Azimuth Distance (km) Brightness Sun altitude
Rises 06:49:51 0° 191° (S) 3,369 7.4 -12.0°
Reaches altitude 10° 06:52:14 10° 191° (SSW) 2,434 6.7 -11.7°
Maximum altitude 06:57:45 86° 281° (W) 838 4.2 -10.8°
Drops below altitude 10° 07:03:18 10° 11° (N) 2,449 6.5 -9.9°
Sets 07:05:43 0° 12° (NNE) 3,392 7.3 -9.5°
